timestamp,surface_pressure_avg,surface_temp_avg,battery_voltage,lat,long
2017-10-06 00:00:00+00:00,372.0714,12.46,13.05,47.84626,-54.09684
2017-10-06 00:10:00+00:00,367.0845,12.48,12.97,47.84626,-54.09684
2017-10-06 00:20:00+00:00,361.043,12.49,13.05,47.84626,-54.09684
2017-10-06 00:30:00+00:00,358.8046,12.48,13.05,47.84626,-54.09684
2017-10-06 00:40:00+00:00,353.588,12.49,13.05,47.84626,-54.09684
2017-10-06 00:50:00+00:00,346.9063,12.49,13.05,47.84626,-54.09684
2017-10-06 01:00:00+00:00,344.0379,12.49,12.97,47.84626,-54.09684
2017-10-06 01:10:00+00:00,339.6896,12.49,12.97,47.84626,-54.09684
2017-10-06 01:20:00+00:00,331.8896,12.49,13.05,47.84626,-54.09684
2017-10-06 01:30:00+00:00,324.7713,12.48,12.97,47.84626,-54.09684
2017-10-06 01:40:00+00:00,322.573,12.46,13.05,47.84626,-54.09684
2017-10-06 01:50:00+00:00,315.0596,12.48,13.05,47.84626,-54.09684
2017-10-06 02:00:00+00:00,305.538,12.48,12.97,47.84626,-54.09684
2017-10-06 02:10:00+00:00,297.1814,12.48,12.89,47.84626,-54.09684
2017-10-06 02:20:00+00:00,289.2114,12.46,12.97,47.84626,-54.09684
2017-10-06 02:30:00+00:00,279.0264,12.4,12.97,47.84626,-54.09684
2017-10-06 02:40:00+00:00,269.7898,12.35,12.97,47.84626,-54.09684
2017-10-06 02:50:00+00:00,261.3564,12.33,12.97,47.84626,-54.09684
2017-10-06 03:00:00+00:00,249.3481,12.35,12.97,47.84626,-54.09684
2017-10-06 03:10:00+00:00,240.4547,12.35,12.89,47.84626,-54.09684
2017-10-06 03:20:00+00:00,233.5414,12.36,12.97,47.84626,-54.09684
2017-10-06 03:30:00+00:00,223.3181,12.37,12.97,47.84626,-54.09684
2017-10-06 03:40:00+00:00,213.5914,12.38,12.97,47.84626,-54.09684
2017-10-06 03:50:00+00:00,209.4047,12.38,12.97,47.84626,-54.09684
2017-10-06 04:00:00+00:00,200.9864,12.39,12.97,47.84626,-54.09684
2017-10-06 04:10:00+00:00,192.1515,12.39,12.89,47.84626,-54.09684
2017-10-06 04:20:00+00:00,188.3348,12.39,12.97,47.84626,-54.09684
2017-10-06 04:30:00+00:00,183.1614,12.4,12.97,47.84626,-54.09684
2017-10-06 04:40:00+00:00,176.7165,12.4,12.97,47.84626,-54.09684
2017-10-06 04:50:00+00:00,177.4248,12.4,12.97,47.84626,-54.09684
2017-10-06 05:00:00+00:00,180.8431,12.39,12.89,47.84626,-54.09684
2017-10-06 05:10:00+00:00,178.4464,12.39,12.81,47.84626,-54.09684
2017-10-06 05:20:00+00:00,175.8265,12.38,12.89,47.84626,-54.09684
2017-10-06 05:30:00+00:00,177.8782,12.36,12.89,47.84626,-54.09684
2017-10-06 05:40:00+00:00,182.0431,12.36,12.97,47.84626,-54.09684
2017-10-06 05:50:00+00:00,183.9414,12.37,12.97,47.84626,-54.09684
2017-10-06 06:00:00+00:00,184.5965,12.37,12.89,47.84626,-54.09684
2017-10-06 06:10:00+00:00,188.5348,12.36,12.81,47.84626,-54.09684
2017-10-06 06:20:00+00:00,193.9048,12.36,12.89,47.84626,-54.09684
2017-10-06 06:30:00+00:00,197.7298,12.36,12.89,47.84626,-54.09684
2017-10-06 06:40:00+00:00,198.4548,12.37,12.89,47.84626,-54.09684
2017-10-06 06:50:00+00:00,203.1431,12.34,12.97,47.84626,-54.09684
2017-10-06 07:00:00+00:00,210.5281,12.31,12.89,47.84626,-54.09684
2017-10-06 07:10:00+00:00,215.3698,12.3,12.81,47.84626,-54.09684
2017-10-06 07:20:00+00:00,221.0231,12.3,12.89,47.84626,-54.09684
2017-10-06 07:30:00+00:00,224.3631,12.3,12.89,47.84626,-54.09684
2017-10-06 07:40:00+00:00,225.9715,12.3,12.89,47.84626,-54.09684
2017-10-06 07:50:00+00:00,233.8414,12.3,12.89,47.84626,-54.09684
2017-10-06 08:00:00+00:00,242.5331,12.3,12.89,47.84626,-54.09684
2017-10-06 08:10:00+00:00,247.2031,12.27,12.81,47.84626,-54.09684
2017-10-06 08:20:00+00:00,253.1114,12.2,12.89,47.84626,-54.09684
2017-10-06 08:30:00+00:00,262.5514,12.2,12.89,47.84626,-54.09684
2017-10-06 08:40:00+00:00,271.9464,12.2,12.89,47.84626,-54.09684
2017-10-06 08:50:00+00:00,281.6764,12.2,12.89,47.84626,-54.09684
2017-10-06 09:00:00+00:00,291.4897,12.2,12.89,47.84626,-54.09684
2017-10-06 09:10:00+00:00,299.8281,12.2,12.81,47.84626,-54.09684
2017-10-06 09:20:00+00:00,304.8347,12.16,12.89,47.84626,-54.09684
2017-10-06 09:30:00+00:00,311.2997,12.17,12.89,47.84626,-54.09684
2017-10-06 09:40:00+00:00,316.3463,12.18,12.89,47.84626,-54.09684
2017-10-06 09:50:00+00:00,322.6379,12.19,12.89,47.84626,-54.09684
2017-10-06 10:00:00+00:00,332.408,12.19,13.05,47.84626,-54.09684
2017-10-06 10:10:00+00:00,343.0313,12.19,13.29,47.84626,-54.09684
2017-10-06 10:20:00+00:00,344.3246,12.18,13.84,47.84626,-54.09684
2017-10-06 10:30:00+00:00,348.2863,12.19,14.24,47.84626,-54.09684
2017-10-06 10:40:00+00:00,362.4313,12.19,13.68,47.84626,-54.09684
2017-10-06 10:50:00+00:00,368.1813,12.17,13.44,47.84626,-54.09684
2017-10-06 11:00:00+00:00,366.4863,12.1,13.44,47.84626,-54.09684
2017-10-06 11:10:00+00:00,371.8796,12.0,13.76,47.84626,-54.09684
2017-10-06 11:20:00+00:00,380.4012,12.0,13.53,47.84626,-54.09684
2017-10-06 11:30:00+00:00,378.7413,12.0,13.53,47.84626,-54.09684
2017-10-06 11:40:00+00:00,376.0829,12.0,13.6,47.84626,-54.09684
2017-10-06 11:50:00+00:00,385.7645,12.07,13.76,47.84626,-54.09684
2017-10-06 12:00:00+00:00,390.2313,12.1,13.6,47.84626,-54.09684
2017-10-06 12:10:00+00:00,384.4479,12.1,13.53,47.84626,-54.09684
2017-10-06 12:20:00+00:00,384.738,12.1,13.6,47.84626,-54.09684
2017-10-06 12:30:00+00:00,388.2079,12.14,13.6,47.84626,-54.09684
2017-10-06 12:40:00+00:00,384.3529,12.18,13.44,47.84626,-54.09684
2017-10-06 12:50:00+00:00,376.7696,12.2,13.44,47.84626,-54.09684
2017-10-06 13:00:00+00:00,376.5613,12.2,13.92,47.84626,-54.09684
2017-10-06 13:10:00+00:00,375.1013,12.2,13.84,47.84626,-54.09684
2017-10-06 13:20:00+00:00,365.1663,12.2,13.44,47.84626,-54.09684
2017-10-06 13:30:00+00:00,359.6229,12.21,13.44,47.84626,-54.09684
2017-10-06 13:40:00+00:00,357.458,12.2,13.44,47.84626,-54.09684
2017-10-06 13:50:00+00:00,348.093,12.23,13.53,47.84626,-54.09684
2017-10-06 14:00:00+00:00,336.4013,12.24,13.44,47.84626,-54.09684
2017-10-06 14:10:00+00:00,331.7297,12.25,13.53,47.84626,-54.09684
2017-10-06 14:20:00+00:00,326.4946,12.26,13.53,47.84626,-54.09684
2017-10-06 14:30:00+00:00,311.923,12.26,13.53,47.84626,-54.09684
2017-10-06 14:40:00+00:00,303.433,12.2,13.53,47.84626,-54.09684
2017-10-06 14:50:00+00:00,295.053,12.2,13.44,47.84626,-54.09684
2017-10-06 15:00:00+00:00,282.048,12.2,14.0,47.84626,-54.09684
2017-10-06 15:10:00+00:00,269.9397,12.25,13.53,47.84626,-54.09684
2017-10-06 15:20:00+00:00,262.2481,12.24,13.44,47.84626,-54.09684
2017-10-06 15:30:00+00:00,249.4914,12.27,13.53,47.84626,-54.09684
2017-10-06 15:40:00+00:00,235.9181,12.28,13.44,47.84626,-54.09684
2017-10-06 15:50:00+00:00,229.0331,12.2,13.44,47.84626,-54.09684
2017-10-06 16:00:00+00:00,221.8047,12.1,13.6,47.84626,-54.09684
2017-10-06 16:10:00+00:00,210.3714,12.18,14.08,47.84626,-54.09684
2017-10-06 16:20:00+00:00,202.2964,12.19,13.53,47.84626,-54.09684
2017-10-06 16:30:00+00:00,199.1798,12.1,13.68,47.84626,-54.09684
2017-10-06 16:40:00+00:00,193.7098,12.1,13.44,47.84626,-54.09684
2017-10-06 16:50:00+00:00,187.7815,12.1,13.44,47.84626,-54.09684
2017-10-06 17:00:00+00:00,187.0031,12.03,13.37,47.84626,-54.09684
2017-10-06 17:10:00+00:00,185.1864,12.0,13.6,47.84626,-54.09684
2017-10-06 17:20:00+00:00,178.5448,12.0,13.44,47.84626,-54.09684
2017-10-06 17:30:00+00:00,176.4898,12.0,13.76,47.84626,-54.09684
2017-10-06 17:40:00+00:00,176.4381,12.0,13.44,47.84626,-54.09684
2017-10-06 17:50:00+00:00,174.3648,12.06,13.44,47.84626,-54.09684
2017-10-06 18:00:00+00:00,173.8415,12.12,13.44,47.84626,-54.09684
2017-10-06 18:10:00+00:00,177.7531,12.2,13.6,47.84626,-54.09684
2017-10-06 18:20:00+00:00,180.8798,12.19,13.84,47.84626,-54.09684
2017-10-06 18:30:00+00:00,180.0598,12.2,13.84,47.84626,-54.09684
2017-10-06 18:40:00+00:00,181.7381,12.2,13.68,47.84626,-54.09684
2017-10-06 18:50:00+00:00,188.5148,12.2,13.6,47.84626,-54.09684
2017-10-06 19:00:00+00:00,193.8648,12.18,13.44,47.84626,-54.09684
2017-10-06 19:10:00+00:00,197.0464,12.18,13.29,47.84626,-54.09684
2017-10-06 19:20:00+00:00,200.6564,12.19,13.37,47.84626,-54.09684
2017-10-06 19:30:00+00:00,207.5298,12.2,13.29,47.84626,-54.09684
2017-10-06 19:40:00+00:00,216.0298,12.2,13.29,47.84626,-54.09684
2017-10-06 19:50:00+00:00,219.1564,12.2,13.29,47.84626,-54.09684
2017-10-06 20:00:00+00:00,222.3965,12.2,13.29,47.84626,-54.09684
2017-10-06 20:10:00+00:00,232.5015,12.2,13.13,47.84626,-54.09684
2017-10-06 20:20:00+00:00,240.3981,12.2,13.21,47.84626,-54.09684
2017-10-06 20:30:00+00:00,244.7647,12.2,13.21,47.84626,-54.09684
2017-10-06 20:40:00+00:00,252.3064,12.2,13.21,47.84626,-54.09684
2017-10-06 20:50:00+00:00,258.938,12.21,13.21,47.84626,-54.09684
2017-10-06 21:00:00+00:00,265.2747,12.27,13.13,47.84626,-54.09684
2017-10-06 21:10:00+00:00,267.7863,12.3,13.05,47.84626,-54.09684
2017-10-06 21:20:00+00:00,274.3897,12.3,13.13,47.84626,-54.09684
2017-10-06 21:30:00+00:00,283.6848,12.36,13.05,47.84626,-54.09684
2017-10-06 21:40:00+00:00,295.073,12.37,13.13,47.84626,-54.09684
2017-10-06 21:50:00+00:00,300.3214,12.4,13.13,47.84626,-54.09684
2017-10-06 22:00:00+00:00,307.9113,12.4,13.05,47.84626,-54.09684
2017-10-06 22:10:00+00:00,320.8746,12.4,12.97,47.84626,-54.09684
2017-10-06 22:20:00+00:00,329.403,12.42,13.05,47.84626,-54.09684
2017-10-06 22:30:00+00:00,333.978,12.47,13.05,47.84626,-54.09684
2017-10-06 22:40:00+00:00,341.2297,12.49,13.05,47.84626,-54.09684
2017-10-06 22:50:00+00:00,351.0779,12.49,13.05,47.84626,-54.09684
2017-10-06 23:00:00+00:00,361.1346,12.49,13.05,47.84626,-54.09684
2017-10-06 23:10:00+00:00,364.8896,12.49,12.97,47.84626,-54.09684
2017-10-06 23:20:00+00:00,365.4213,12.5,13.05,47.84626,-54.09684
2017-10-06 23:30:00+00:00,368.7396,12.5,13.05,47.84626,-54.09684
2017-10-06 23:40:00+00:00,375.088,12.5,13.05,47.84626,-54.09684
2017-10-06 23:50:00+00:00,380.1528,12.5,13.05,47.84626,-54.09684
